Time,TemperatureF,DewpointF,PressureIn,WindDirection,WindDirectionDegrees,WindSpeedMPH,WindSpeedGustMPH,Humidity,HourlyPrecipIn,Conditions,Clouds,dailyrainin,SoftwareType,DateUTC
2015-07-07 00:00:00,70.2,61.2,29.94,North,9,10.0,17.0,73,0.00,,---,0.08,VWS V14.01,2015-07-07 05:00:00,
2015-07-07 00:05:00,70.2,61.2,29.95,North,9,14.0,15.0,73,0.00,,---,0.00,VWS V14.01,2015-07-07 05:05:00,
2015-07-07 00:11:00,70.3,60.9,29.95,North,5,14.0,16.0,72,0.00,,---,0.00,VWS V14.01,2015-07-07 05:11:00,
2015-07-07 00:16:00,70.2,61.2,29.95,North,360,5.0,16.0,73,0.00,,---,0.00,VWS V14.01,2015-07-07 05:16:00,
2015-07-07 00:21:00,70.1,61.0,29.96,NNW,342,10.0,16.0,73,0.00,,---,0.00,VWS V14.01,2015-07-07 05:21:00,
2015-07-07 00:27:00,70.0,61.3,29.96,North,9,10.0,18.0,74,0.00,,---,0.00,VWS V14.01,2015-07-07 05:27:00,
2015-07-07 00:32:00,69.9,61.2,29.96,North,9,13.0,18.0,74,0.00,,---,0.00,VWS V14.01,2015-07-07 05:32:00,
2015-07-07 00:37:00,69.7,61.0,29.96,North,10,10.0,16.0,74,0.00,,---,0.00,VWS V14.01,2015-07-07 05:37:00,
2015-07-07 00:42:00,69.6,61.0,29.96,North,360,9.0,16.0,74,0.00,,---,0.00,VWS V14.01,2015-07-07 05:42:00,
2015-07-07 00:47:00,69.6,61.0,29.97,North,355,11.0,17.0,74,0.00,,---,0.00,VWS V14.01,2015-07-07 05:47:00,
2015-07-07 00:53:00,69.5,60.9,29.97,North,360,6.0,17.0,74,0.00,,---,0.00,VWS V14.01,2015-07-07 05:53:00,
2015-07-07 00:58:00,69.4,61.1,29.97,NNW,341,11.0,17.0,75,0.00,,---,0.00,VWS V14.01,2015-07-07 05:58:00,
2015-07-07 01:03:00,69.3,60.7,29.97,NNE,14,10.0,11.0,74,0.00,,---,0.00,VWS V14.01,2015-07-07 06:03:00,
2015-07-07 01:09:00,69.2,60.6,29.96,North,360,16.0,17.0,74,0.00,,---,0.00,VWS V14.01,2015-07-07 06:09:00,
2015-07-07 01:14:00,69.2,60.6,29.96,North,9,9.0,17.0,74,0.00,,---,0.00,VWS V14.01,2015-07-07 06:14:00,
2015-07-07 01:19:00,69.1,60.1,29.96,NNE,23,15.0,17.0,73,0.00,,---,0.00,VWS V14.01,2015-07-07 06:19:00,
2015-07-07 01:24:00,69.1,59.7,29.97,North,360,11.0,17.0,72,0.00,,---,0.00,VWS V14.01,2015-07-07 06:24:00,
2015-07-07 01:30:00,69.0,59.6,29.97,North,360,16.0,17.0,72,0.00,,---,0.00,VWS V14.01,2015-07-07 06:30:00,
2015-07-07 01:35:00,68.8,59.4,29.97,NNE,13,9.0,15.0,72,0.00,,---,0.00,VWS V14.01,2015-07-07 06:35:00,
2015-07-07 01:40:00,68.6,59.2,29.97,NNE,12,11.0,20.0,72,0.00,,---,0.00,VWS V14.01,2015-07-07 06:40:00,
2015-07-07 01:46:00,68.4,59.4,29.97,NNE,32,11.0,20.0,73,0.00,,---,0.00,VWS V14.01,2015-07-07 06:46:00,
2015-07-07 01:51:00,68.2,59.2,29.97,North,9,11.0,20.0,73,0.00,,---,0.00,VWS V14.01,2015-07-07 06:51:00,
2015-07-07 01:56:00,68.0,59.4,29.97,North,10,10.0,20.0,74,0.00,,---,0.00,VWS V14.01,2015-07-07 06:56:00,
2015-07-07 02:01:00,67.8,59.2,29.98,North,360,13.0,20.0,74,0.00,,---,0.00,VWS V14.01,2015-07-07 07:01:00,
2015-07-07 02:07:00,67.6,59.4,29.98,NNE,18,11.0,16.0,75,0.00,,---,0.00,VWS V14.01,2015-07-07 07:07:00,
2015-07-07 02:12:00,67.4,59.2,29.98,NNW,345,12.0,16.0,75,0.00,,---,0.00,VWS V14.01,2015-07-07 07:12:00,
2015-07-07 02:17:00,67.2,59.0,29.98,North,360,5.0,16.0,75,0.00,,---,0.00,VWS V14.01,2015-07-07 07:17:00,
2015-07-07 02:22:00,67.0,59.2,29.98,North,5,5.0,16.0,76,0.00,,---,0.00,VWS V14.01,2015-07-07 07:22:00,
2015-07-07 02:28:00,66.7,58.9,29.98,North,360,6.0,16.0,76,0.00,,---,0.00,VWS V14.01,2015-07-07 07:28:00,
2015-07-07 02:33:00,66.6,59.2,29.98,North,360,6.0,16.0,77,0.00,,---,0.00,VWS V14.01,2015-07-07 07:33:00,
2015-07-07 02:43:00,66.1,58.7,29.98,North,5,10.0,14.0,77,0.00,,---,0.00,VWS V14.01,2015-07-07 07:43:00,
2015-07-07 02:48:00,65.9,58.5,29.98,NNE,19,10.0,15.0,77,0.00,,---,0.00,VWS V14.01,2015-07-07 07:48:00,
2015-07-07 02:53:00,65.6,58.2,29.98,North,355,10.0,15.0,77,0.00,,---,0.00,VWS V14.01,2015-07-07 07:53:00,
2015-07-07 02:58:00,65.4,58.0,29.98,NNE,14,4.0,15.0,77,0.00,,---,0.00,VWS V14.01,2015-07-07 07:58:00,
2015-07-07 03:03:00,65.2,58.2,29.98,NNW,342,9.0,9.0,78,0.00,,---,0.00,VWS V14.01,2015-07-07 08:03:00,
2015-07-07 03:09:00,65.1,58.1,29.98,NNE,22,8.0,12.0,78,0.00,,---,0.00,VWS V14.01,2015-07-07 08:09:00,
2015-07-07 03:14:00,64.9,57.9,29.99,North,355,3.0,12.0,78,0.00,,---,0.00,VWS V14.01,2015-07-07 08:14:00,
2015-07-07 03:19:00,64.6,57.6,29.99,North,360,0.0,12.0,78,0.00,,---,0.00,VWS V14.01,2015-07-07 08:19:00,
2015-07-07 03:24:00,64.3,57.7,29.99,North,360,0.0,12.0,79,0.00,,---,0.00,VWS V14.01,2015-07-07 08:24:00,
2015-07-07 03:29:00,64.1,57.5,29.99,North,10,0.0,12.0,79,0.00,,---,0.00,VWS V14.01,2015-07-07 08:29:00,
2015-07-07 03:35:00,63.8,57.5,29.99,NNE,18,0.0,0.0,80,0.00,,---,0.00,VWS V14.01,2015-07-07 08:35:00,
2015-07-07 03:40:00,63.7,57.4,29.99,North,11,0.0,7.0,80,0.00,,---,0.00,VWS V14.01,2015-07-07 08:40:00,
2015-07-07 03:45:00,63.6,57.3,29.99,North,360,0.0,7.0,80,0.00,,---,0.00,VWS V14.01,2015-07-07 08:45:00,
2015-07-07 03:51:00,63.4,57.1,29.99,North,5,4.0,7.0,80,0.00,,---,0.00,VWS V14.01,2015-07-07 08:51:00,
2015-07-07 03:56:00,63.4,57.1,29.98,North,5,0.0,8.0,80,0.00,,---,0.00,VWS V14.01,2015-07-07 08:56:00,
2015-07-07 04:01:00,63.3,57.0,29.98,North,9,3.0,9.0,80,0.00,,---,0.00,VWS V14.01,2015-07-07 09:01:00,
2015-07-07 04:07:00,63.3,57.0,29.98,North,5,4.0,7.0,80,0.00,,---,0.00,VWS V14.01,2015-07-07 09:07:00,
2015-07-07 04:12:00,63.1,56.8,29.98,North,355,5.0,7.0,80,0.00,,---,0.00,VWS V14.01,2015-07-07 09:12:00,
2015-07-07 04:17:00,62.9,56.6,29.98,North,10,8.0,11.0,80,0.00,,---,0.00,VWS V14.01,2015-07-07 09:17:00,
2015-07-07 04:22:00,62.7,56.5,29.98,North,9,5.0,11.0,80,0.00,,---,0.00,VWS V14.01,2015-07-07 09:22:00,
2015-07-07 04:27:00,62.6,56.3,29.98,North,10,6.0,11.0,80,0.00,,---,0.00,VWS V14.01,2015-07-07 09:27:00,
2015-07-07 04:32:00,62.5,56.2,29.98,North,5,6.0,11.0,80,0.00,,---,0.00,VWS V14.01,2015-07-07 09:32:00,
2015-07-07 04:38:00,62.5,56.6,29.98,North,360,8.0,8.0,81,0.00,,---,0.00,VWS V14.01,2015-07-07 09:38:00,
2015-07-07 04:43:00,62.3,56.4,29.98,NNE,13,6.0,11.0,81,0.00,,---,0.00,VWS V14.01,2015-07-07 09:43:00,
2015-07-07 04:48:00,62.4,56.5,29.98,NNE,13,9.0,12.0,81,0.00,,---,0.00,VWS V14.01,2015-07-07 09:48:00,
2015-07-07 04:53:00,62.3,56.4,29.98,North,355,6.0,12.0,81,0.00,,---,0.00,VWS V14.01,2015-07-07 09:53:00,
2015-07-07 04:59:00,62.2,56.3,29.98,NNE,12,5.0,12.0,81,0.00,,---,0.00,VWS V14.01,2015-07-07 09:59:00,
2015-07-07 05:04:00,62.1,56.2,29.98,North,355,6.0,10.0,81,0.00,,---,0.00,VWS V14.01,2015-07-07 10:04:00,
2015-07-07 05:10:00,62.0,56.1,29.99,North,5,10.0,16.0,81,0.00,,---,0.00,VWS V14.01,2015-07-07 10:10:00,
2015-07-07 05:15:00,61.9,56.0,29.99,North,360,8.0,16.0,81,0.00,,---,0.00,VWS V14.01,2015-07-07 10:15:00,
2015-07-07 05:20:00,61.8,55.9,29.99,North,355,11.0,16.0,81,0.00,,---,0.00,VWS V14.01,2015-07-07 10:20:00,
2015-07-07 05:25:00,61.7,55.8,29.99,North,5,8.0,16.0,81,0.00,,---,0.00,VWS V14.01,2015-07-07 10:25:00,
2015-07-07 05:30:00,61.6,55.7,30.00,North,355,5.0,16.0,81,0.00,,---,0.00,VWS V14.01,2015-07-07 10:30:00,
2015-07-07 05:36:00,61.4,55.5,30.00,North,355,7.0,11.0,81,0.00,,---,0.00,VWS V14.01,2015-07-07 10:36:00,
2015-07-07 05:41:00,61.2,55.0,30.00,North,360,3.0,11.0,80,0.00,,---,0.00,VWS V14.01,2015-07-07 10:41:00,
2015-07-07 05:46:00,61.0,54.8,30.00,North,355,5.0,11.0,80,0.00,,---,0.00,VWS V14.01,2015-07-07 10:46:00,
2015-07-07 05:52:00,60.9,54.7,30.00,North,360,5.0,11.0,80,0.00,,---,0.00,VWS V14.01,2015-07-07 10:52:00,
2015-07-07 05:57:00,60.7,54.5,30.01,NNE,22,8.0,11.0,80,0.00,,---,0.00,VWS V14.01,2015-07-07 10:57:00,
2015-07-07 06:02:00,60.6,54.4,30.01,North,355,6.0,11.0,80,0.00,,---,0.00,VWS V14.01,2015-07-07 11:02:00,
2015-07-07 06:07:00,60.4,54.2,30.01,North,355,5.0,9.0,80,0.00,,---,0.00,VWS V14.01,2015-07-07 11:07:00,
2015-07-07 06:13:00,60.4,53.9,30.02,North,5,9.0,12.0,79,0.00,,---,0.00,VWS V14.01,2015-07-07 11:13:00,
2015-07-07 06:18:00,60.4,53.9,30.02,North,355,4.0,12.0,79,0.00,,---,0.00,VWS V14.01,2015-07-07 11:18:00,
2015-07-07 06:23:00,60.4,53.9,30.02,North,355,7.0,12.0,79,0.00,,---,0.00,VWS V14.01,2015-07-07 11:23:00,
2015-07-07 06:29:00,60.4,53.9,30.02,North,5,7.0,16.0,79,0.00,,---,0.00,VWS V14.01,2015-07-07 11:29:00,
2015-07-07 06:39:00,60.2,54.0,30.02,North,9,6.0,13.0,80,0.00,,---,0.00,VWS V14.01,2015-07-07 11:39:00,
2015-07-07 06:44:00,60.2,54.0,30.02,North,360,8.0,14.0,80,0.00,,---,0.00,VWS V14.01,2015-07-07 11:44:00,
2015-07-07 06:49:00,60.2,54.0,30.03,North,11,8.0,14.0,80,0.00,,---,0.00,VWS V14.01,2015-07-07 11:49:00,
2015-07-07 06:54:00,60.2,54.4,30.03,NNE,14,6.0,14.0,81,0.00,,---,0.00,VWS V14.01,2015-07-07 11:54:00,
2015-07-07 07:00:00,60.1,54.3,30.03,North,9,11.0,14.0,81,0.00,,---,0.00,VWS V14.01,2015-07-07 12:00:00,
2015-07-07 07:05:00,60.1,54.3,30.03,North,360,7.0,12.0,81,0.00,,---,0.00,VWS V14.01,2015-07-07 12:05:00,
2015-07-07 07:10:00,60.1,54.3,30.03,NNE,16,7.0,12.0,81,0.00,,---,0.00,VWS V14.01,2015-07-07 12:10:00,
2015-07-07 07:15:00,60.1,54.3,30.03,NNE,30,11.0,15.0,81,0.00,,---,0.00,VWS V14.01,2015-07-07 12:15:00,
2015-07-07 07:20:00,60.2,54.0,30.03,NNE,26,8.0,15.0,80,0.00,,---,0.00,VWS V14.01,2015-07-07 12:20:00,
2015-07-07 07:25:00,60.2,54.0,30.04,North,11,12.0,15.0,80,0.00,,---,0.00,VWS V14.01,2015-07-07 12:25:00,